958  
ASUS44 KSHV 151210  
RWRSHV  
 
THE FOUR STATE AREA WEATHER ROUNDUP  
NATIONAL WEATHER SERVICE SHREVEPORT LA  
700 AM CDT MON AUG 15 2022  
 
NOTE: "FAIR" INDICATES FEW OR NO CLOUDS BELOW 12000 FEET  
WITH NO SIGNIFICANT WEATHER AND/OR S TO VISIBILITY
.  
 
!LAZ001-LAZ014-TXZ097-151300  
SHREVEPORT...MONROE...TEXARKANA RADIOS  
 
CITY SKY/WX TMP DP RH WIND PRES REMARKS
 
SHREVEPORT MOCLDY 79 73 82 SW3 29.96R  
MONROE CLEAR 78 74 87 SW3 29.96R  
NATCHITOCHES CLEAR 73 73 99 CALM 29.97R FOG  
TEXARKANA CLEAR 80 72 76 SW6 29.95R  
ATLANTA FAIR 73 73 99 CALM 29.95R  

 
 
!LAZ001-LAZ014-TXZ097-151300  
OTHER LOCATIONS...  
 
CITY SKY/WX TMP DP RH WIND PRES REMARKS
 
DOWNTOWN SHV PTCLDY 81 72 74 W7 29.96R  
BOSSIER CITY PTCLDY 79 71 77 CALM 29.96R  
RUSTON CLEAR 76 72 86 W3 30.00R  
LITTLE ROCK PTCLDY 75 69 81 W3 29.94R  
EL DORADO CLEAR 75 73 93 CALM 29.95R  
JACKSON PTCLDY 76 73 91 S5 29.97R  
NEW ORLEANS PTCLDY 77 76 96 W3 29.97R  
HOUSTON MOCLDY 76 75 97 CALM 29.95R  
LUFKIN PTCLDY 74 72 93 CALM 29.97R  
TYLER PTCLDY 80 70 71 SW6 29.97R  
DAL FT WORTH MOCLDY 81 65 58 S9 29.94R  

 
 
!TXZ136-TXZ165-151300  
TYLER...LUFKIN RADIOS  
 
CITY SKY/WX TMP DP RH WIND PRES REMARKS
 
TYLER PTCLDY 80 70 71 SW6 29.97R  
GILMER SUNNY 76 68 76 CALM 29.97R  
LONGVIEW CLEAR 76 70 82 S3 29.96R  
LUFKIN PTCLDY 74 72 93 CALM 29.97R  

 
 
!TXZ136-TXZ165-151300  
OTHER LOCATIONS...  
 
CITY SKY/WX TMP DP RH WIND PRES REMARKS
 
NACOGDOCHES PTCLDY 73 73 100 CALM 29.99R  
BEAUMONT PTCLDY 75 75 100 CALM 29.96R  
HOUSTON MOCLDY 76 75 97 CALM 29.95R  
COLLEGE STN PTCLDY 77 73 87 SE3 29.96R  
AUSTIN MOCLDY 74 71 91 CALM 29.95R  
DAL FT WORTH MOCLDY 81 65 58 S9 29.94R  
TEXARKANA CLEAR 80 72 76 SW6 29.95R  
SHREVEPORT MOCLDY 79 73 82 SW3 29.96R  
FORT POLK CLEAR 75 74 98 CALM 29.97R  
LAKE CHARLES PTCLDY 74 73 97 CALM 29.97R  

 
 
 
CLICK HERE TO GO TO PREVIOUS BULLETINS.

The Nexlab LA Page
The Nexlab TX Page
The Nexlab AR Page
The Nexlab OK Page Main Text Page